Regional Weather Roundup
Issued by NWS

Home | Current Version | Previous Version | Graphics & Text | Print | Product List | Glossary On
Versions: 1 2 3 4 5 6 7 8 9 10 11 12 13 14 15 16 17 18 19 20 21 22 23 24 25 26 27 28 29 30 31 32 33 34 35 36 37 38 39 40 41 42 43 44 45 46 47 48 49 50
000
ASUS43 KLMK 221010
RWRKY
KENTUCKY REGIONAL WEATHER ROUNDUP
NATIONAL WEATHER SERVICE LOUISVILLE KY
600 AM EDT WED OCT 22 2014

NOTE "FAIR" INDICATES FEW OR NO CLOUDS BELOW 12,000 FEET
WITH NO SIGNIFICANT WEATHER AND/OR OBSTRUCTIONS TO VISIBILITY.

KYZ001>023-026-027-061>063-070>075-221100-
WESTERN AND SOUTH CENTRAL KENTUCKY

CITY           SKY/WX    TMP DP  RH WIND       PRES   REMARKS
PADUCAH        CLEAR     43  41  93 E3        30.21R
HENDERSON      CLEAR    N/A N/A N/A NE5       30.23R
OWENSBORO      CLEAR     46  43  90 NE8       30.23R
HOPKINSVILLE   CLEAR     40  40 100 N8        30.20R WCI  34
BOWLING GREEN  CLEAR     42  39  89 NE3       30.21R
GLASGOW        CLEAR     43  40  86 CALM      30.20R
$$

KYZ024-025-028>034-038-045-046-053-221100-
NORTH CENTRAL KENTUCKY

CITY           SKY/WX    TMP DP  RH WIND       PRES   REMARKS
LOUISVILLE/SDF CLEAR     44  39  82 N7        30.23R
LOUISVILLE/LOU CLEAR     43  39  86 NW3       30.24R
FORT KNOX      CLEAR     43  39  86 N5        30.21R
$$

KYZ035>037-039>044-047>052-055>060-089>105-221100-
NORTHEAST KENTUCKY

CITY           SKY/WX    TMP DP  RH WIND       PRES   REMARKS
LEXINGTON      PTCLDY    44  38  79 NW6       30.20R
COVINGTON      CLOUDY    46  37  71 N8        30.22R
FRANKFORT      CLOUDY    45  37  73 N6        30.21R
$$

KYZ054-064>069-076>088-106>120-221100-
SOUTHEAST KENTUCKY

CITY           SKY/WX    TMP DP  RH WIND       PRES   REMARKS
JACKSON        PTCLDY    41  38  89 VRB3      30.16R
LONDON         CLEAR     43  36  76 CALM      30.18R
SOMERSET       CLEAR     41  37  87 NE3       30.20R
MIDDLESBORO    MOCLDY    47  37  70 N7        30.16R
MONTICELLO     SUNNY     44  40  86 NE5       30.20R
$$




USA.gov is the U.S. government's official web portal to all federal, state and local government web resources and services.